DLH719 RKSI-EDDM

Flight info

Callsign DLH719
Flight time N/A
Altitude 34100
Route BINIL3H BINIL Y697 AGAVO A591 IKEKA W4 HCH W200 DOVIV W55 PAMRU W34 VYK B215 LEBOM W104 OMDIS/K0920S1100 W104 VEXEB W47 IDSOT W48 DKO W66 NUKTI B215 FKG A368 SARIN/K0891F380 N161 GASBI/N0490F380 N161 ABTEK/N0493F400 N161 LEYLA T916 MATAL DCT TABAS DCT REBLO UM11 CRM UL746 ODERO L746 LUGEB DCT MOPUG DCT SUNIS DCT AMADI Q113 NAPSA NAPSA1B
Aircraft A359/H-SADE2E3GHIJ1J2J3J4J5M1P2RWXYZ/LB1D1

Departure

Time 2026-05-06 19:16
Airport Incheon International Airport (RKSI)

Arrival

Time N/A
Airport Munich Airport (EDDM)
Time Latitude Longitude Altitude Speed Heading
2026-05-06 18:23 37.44742 126.44733 39 ft 0 kts 108°
2026-05-06 18:59 37.44748 126.44709 37 ft 4 kts 108°
2026-05-06 18:59 37.44757 126.44677 37 ft 4 kts 108°
2026-05-06 19:00 37.44763 126.44651 39 ft 4 kts 110°
2026-05-06 19:00 37.44777 126.44626 36 ft 4 kts 155°
2026-05-06 19:00 37.44801 126.44615 37 ft 2 kts 153°
2026-05-06 19:00 37.44819 126.44601 35 ft 4 kts 129°
2026-05-06 19:01 37.44832 126.44579 35 ft 4 kts 126°
2026-05-06 19:01 37.44848 126.44551 35 ft 4 kts 126°
2026-05-06 19:01 37.44853 126.44543 38 ft 0 kts 126°
2026-05-06 19:05 37.44845 126.44557 35 ft 5 kts 126°
2026-05-06 19:05 37.44813 126.44604 36 ft 9 kts 142°
2026-05-06 19:05 37.44749 126.44606 38 ft 10 kts 192°
2026-05-06 19:05 37.44691 126.44568 39 ft 10 kts 227°
2026-05-06 19:06 37.44649 126.44501 39 ft 10 kts 234°
2026-05-06 19:06 37.44607 126.44428 39 ft 10 kts 234°
2026-05-06 19:06 37.44615 126.44356 39 ft 9 kts 310°
2026-05-06 19:06 37.44665 126.44306 39 ft 10 kts 324°
2026-05-06 19:07 37.44730 126.44248 39 ft 13 kts 324°
2026-05-06 19:07 37.44810 126.44177 39 ft 15 kts 324°
2026-05-06 19:07 37.44902 126.44095 38 ft 17 kts 324°
2026-05-06 19:07 37.45005 126.44004 39 ft 19 kts 324°
2026-05-06 19:08 37.45117 126.43904 37 ft 20 kts 324°
2026-05-06 19:08 37.45235 126.43798 39 ft 21 kts 324°
2026-05-06 19:08 37.45354 126.43693 39 ft 21 kts 324°
2026-05-06 19:08 37.45472 126.43587 39 ft 21 kts 324°
2026-05-06 19:09 37.45590 126.43482 39 ft 21 kts 324°
2026-05-06 19:09 37.45707 126.43377 39 ft 21 kts 324°
2026-05-06 19:09 37.45825 126.43273 39 ft 21 kts 324°
2026-05-06 19:09 37.45943 126.43168 39 ft 21 kts 324°
2026-05-06 19:10 37.46061 126.43063 39 ft 21 kts 324°
2026-05-06 19:10 37.46178 126.42958 39 ft 21 kts 324°
2026-05-06 19:10 37.46296 126.42853 39 ft 21 kts 324°
2026-05-06 19:10 37.46415 126.42747 39 ft 21 kts 324°
2026-05-06 19:11 37.46534 126.42641 39 ft 21 kts 324°
2026-05-06 19:11 37.46653 126.42536 39 ft 21 kts 324°
2026-05-06 19:11 37.46772 126.42430 39 ft 21 kts 324°
2026-05-06 19:11 37.46890 126.42324 39 ft 21 kts 324°
2026-05-06 19:12 37.47007 126.42220 39 ft 21 kts 324°
2026-05-06 19:12 37.47125 126.42114 39 ft 21 kts 324°
2026-05-06 19:12 37.47243 126.42010 39 ft 20 kts 325°
2026-05-06 19:12 37.47319 126.41942 39 ft 11 kts 324°
2026-05-06 19:13 37.47325 126.41865 38 ft 9 kts 244°
2026-05-06 19:13 37.47288 126.41795 39 ft 10 kts 235°
2026-05-06 19:13 37.47247 126.41722 39 ft 10 kts 234°
2026-05-06 19:13 37.47210 126.41656 39 ft 7 kts 231°
2026-05-06 19:14 37.47173 126.41654 39 ft 5 kts 152°
2026-05-06 19:14 37.47165 126.41662 39 ft 0 kts 144°
2026-05-06 19:15 37.47154 126.41672 39 ft 11 kts 144°
2026-05-06 19:15 37.46911 126.41888 39 ft 73 kts 145°
2026-05-06 19:15 37.46341 126.42396 39 ft 126 kts 144°
2026-05-06 19:15 37.45494 126.43152 50 ft 170 kts 144°
2026-05-06 19:16 37.44541 126.43982 710 ft 160 kts 148°
2026-05-06 19:16 37.43563 126.44704 1241 ft 167 kts 156°
2026-05-06 19:16 37.42509 126.45423 1488 ft 178 kts 158°
2026-05-06 19:16 37.41370 126.46173 1711 ft 192 kts 159°
2026-05-06 19:17 37.40144 126.47008 1870 ft 210 kts 157°
2026-05-06 19:17 37.38830 126.47981 2031 ft 230 kts 154°
2026-05-06 19:17 37.37356 126.48842 2299 ft 236 kts 170°
2026-05-06 19:17 37.35751 126.49354 2782 ft 241 kts 171°
2026-05-06 19:18 37.34101 126.49867 3241 ft 247 kts 170°
2026-05-06 19:18 37.32445 126.50443 3674 ft 253 kts 168°
2026-05-06 19:18 37.30714 126.51055 4147 ft 257 kts 169°
2026-05-06 19:18 37.28971 126.51402 4560 ft 257 kts 185°
2026-05-06 19:19 37.27258 126.50897 5006 ft 253 kts 210°
2026-05-06 19:19 37.25832 126.49604 5406 ft 255 kts 224°
2026-05-06 19:19 37.24530 126.48072 5903 ft 258 kts 226°
2026-05-06 19:19 37.23225 126.46502 6377 ft 261 kts 226°
2026-05-06 19:20 37.21906 126.44928 6869 ft 263 kts 225°
2026-05-06 19:20 37.20574 126.43350 7365 ft 264 kts 225°
2026-05-06 19:20 37.19234 126.41771 7866 ft 265 kts 225°
2026-05-06 19:20 37.17883 126.40182 8367 ft 267 kts 225°
2026-05-06 19:21 37.16525 126.38587 8861 ft 269 kts 225°
2026-05-06 19:21 37.15154 126.36980 9392 ft 270 kts 225°
2026-05-06 19:21 37.13776 126.35365 9835 ft 272 kts 225°
2026-05-06 19:21 37.12392 126.33743 10120 ft 274 kts 225°
2026-05-06 19:22 37.11134 126.31920 10435 ft 279 kts 240°
2026-05-06 19:22 37.10461 126.29635 10750 ft 285 kts 262°
2026-05-06 19:22 37.10333 126.27106 10959 ft 297 kts 268°
2026-05-06 19:22 37.10328 126.24466 11157 ft 309 kts 269°
2026-05-06 19:23 37.10327 126.21731 11350 ft 320 kts 269°
2026-05-06 19:23 37.10317 126.18900 11536 ft 330 kts 268°
2026-05-06 19:23 37.10298 126.15980 11723 ft 340 kts 268°
2026-05-06 19:23 37.10276 126.12979 11945 ft 348 kts 268°
2026-05-06 19:24 37.10446 126.09931 12292 ft 354 kts 279°
2026-05-06 19:24 37.11188 126.06976 12670 ft 359 kts 289°
2026-05-06 19:24 37.12170 126.04087 13064 ft 362 kts 291°
2026-05-06 19:24 37.13172 126.01232 13461 ft 364 kts 291°
2026-05-06 19:25 37.14202 125.98282 13926 ft 366 kts 290°
2026-05-06 19:25 37.15218 125.95357 14385 ft 366 kts 290°
2026-05-06 19:25 37.16231 125.92423 14847 ft 367 kts 290°
2026-05-06 19:25 37.17246 125.89476 15298 ft 368 kts 289°
2026-05-06 19:26 37.18261 125.86520 15742 ft 370 kts 289°
2026-05-06 19:26 37.19278 125.83554 16205 ft 371 kts 289°
2026-05-06 19:26 37.20300 125.80572 16657 ft 372 kts 289°
2026-05-06 19:26 37.21311 125.77625 17106 ft 374 kts 289°
2026-05-06 19:27 37.22338 125.74619 17577 ft 375 kts 288°
2026-05-06 19:27 37.23362 125.71615 18107 ft 375 kts 288°
2026-05-06 19:27 37.24388 125.68604 18520 ft 376 kts 288°
2026-05-06 19:27 37.25419 125.65576 18884 ft 378 kts 288°
2026-05-06 19:28 37.26455 125.62530 19261 ft 380 kts 288°
2026-05-06 19:28 37.27495 125.59467 19637 ft 382 kts 288°
2026-05-06 19:28 37.28541 125.56389 20021 ft 384 kts 288°
2026-05-06 19:28 37.29589 125.53298 20407 ft 386 kts 288°
2026-05-06 19:29 37.30643 125.50188 20782 ft 388 kts 288°
2026-05-06 19:29 37.31699 125.47072 21219 ft 388 kts 288°
2026-05-06 19:29 37.32756 125.43945 21609 ft 390 kts 288°
2026-05-06 19:29 37.33818 125.40801 21973 ft 392 kts 288°
2026-05-06 19:30 37.34884 125.37642 22347 ft 394 kts 288°
2026-05-06 19:30 37.35955 125.34464 22720 ft 396 kts 288°
2026-05-06 19:30 37.37031 125.31269 23116 ft 398 kts 288°
2026-05-06 19:30 37.38111 125.28059 23502 ft 400 kts 288°
2026-05-06 19:31 37.39080 125.24787 23820 ft 398 kts 282°
2026-05-06 19:31 37.39583 125.21395 24202 ft 393 kts 271°
2026-05-06 19:31 37.39689 125.14518 24874 ft 395 kts 267°
2026-05-06 19:32 37.39609 125.11065 25212 ft 396 kts 266°
2026-05-06 19:32 37.39508 125.07599 25541 ft 397 kts 266°
2026-05-06 19:32 37.39409 125.04119 25871 ft 399 kts 266°
2026-05-06 19:32 37.39319 125.00626 26132 ft 401 kts 266°
2026-05-06 19:33 37.39238 124.97109 26451 ft 403 kts 267°
2026-05-06 19:33 37.39165 124.93584 26797 ft 404 kts 267°
2026-05-06 19:33 37.39096 124.90044 27102 ft 406 kts 267°
2026-05-06 19:33 37.39028 124.86490 27404 ft 407 kts 267°
2026-05-06 19:34 37.38959 124.82925 27701 ft 409 kts 267°
2026-05-06 19:34 37.38891 124.79341 27999 ft 411 kts 267°
2026-05-06 19:34 37.38818 124.75748 28290 ft 412 kts 267°
2026-05-06 19:34 37.38742 124.72140 28614 ft 413 kts 267°
2026-05-06 19:35 37.38665 124.68581 28973 ft 413 kts 267°
2026-05-06 19:35 37.38585 124.64917 29248 ft 415 kts 267°
2026-05-06 19:35 37.38506 124.61334 29496 ft 416 kts 267°
2026-05-06 19:35 37.38425 124.57693 29743 ft 418 kts 267°
2026-05-06 19:36 37.38342 124.54035 29985 ft 419 kts 268°
2026-05-06 19:36 37.38258 124.50369 30183 ft 420 kts 267°
2026-05-06 19:36 37.38050 124.46702 30412 ft 421 kts 262°
2026-05-06 19:36 37.37503 124.43085 30606 ft 422 kts 256°
2026-05-06 19:37 37.36576 124.39573 30758 ft 425 kts 249°
2026-05-06 19:37 37.35255 124.36231 30942 ft 429 kts 243°
2026-05-06 19:37 37.33738 124.33000 31163 ft 429 kts 242°
2026-05-06 19:37 37.32677 124.30852 31363 ft 429 kts 241°
2026-05-06 19:38 37.30559 124.26681 31766 ft 426 kts 240°
2026-05-06 19:38 37.28956 124.23552 32043 ft 425 kts 240°
2026-05-06 19:38 37.27362 124.20437 32313 ft 423 kts 241°
2026-05-06 19:38 37.25777 124.17321 32503 ft 424 kts 241°
2026-05-06 19:39 37.24195 124.14196 32633 ft 425 kts 241°
2026-05-06 19:39 37.22609 124.11069 32872 ft 424 kts 240°
2026-05-06 19:39 37.20990 124.07979 33140 ft 423 kts 239°
2026-05-06 19:39 37.19353 124.04924 33392 ft 422 kts 239°
2026-05-06 19:40 37.17711 124.01884 33616 ft 421 kts 239°
2026-05-06 19:40 37.16071 123.98850 33841 ft 420 kts 239°
2026-05-06 19:40 37.14458 123.95804 33968 ft 420 kts 240°
2026-05-06 19:40 37.12868 123.92727 34013 ft 422 kts 240°
2026-05-06 19:41 37.09687 123.86505 34011 ft 424 kts 240°
2026-05-06 19:41 37.06497 123.80291 34007 ft 424 kts 240°
2026-05-06 19:42 37.03293 123.74093 34008 ft 424 kts 240°
2026-05-06 19:42 37.00081 123.67900 34018 ft 426 kts 240°
2026-05-06 19:43 36.96850 123.61683 34008 ft 425 kts 240°
2026-05-06 19:43 36.93625 123.55490 34004 ft 425 kts 240°
2026-05-06 19:44 36.90397 123.49301 34005 ft 425 kts 240°
2026-05-06 19:44 36.87320 123.43007 33997 ft 425 kts 246°
2026-05-06 19:45 36.85418 123.36128 34001 ft 422 kts 259°
2026-05-06 19:45 36.85131 123.28815 33997 ft 425 kts 273°
2026-05-06 19:46 36.86415 123.21572 33995 ft 430 kts 282°
2026-05-06 19:46 36.88152 123.14413 34011 ft 431 kts 283°
2026-05-06 19:47 36.89923 123.07285 33997 ft 429 kts 283°
2026-05-06 19:47 36.91658 123.00160 34000 ft 428 kts 282°
2026-05-06 19:48 36.93367 122.93029 33994 ft 428 kts 282°
2026-05-06 19:48 36.94780 122.87098 34002 ft 428 kts 282°
2026-05-06 19:49 36.96475 122.79971 33997 ft 427 kts 282°
2026-05-06 19:49 36.98164 122.72850 33998 ft 427 kts 282°
2026-05-06 19:50 36.99850 122.65723 33998 ft 427 kts 282°
2026-05-06 19:50 37.01531 122.58599 34000 ft 426 kts 282°
2026-05-06 19:51 37.03204 122.51488 33995 ft 426 kts 282°
2026-05-06 19:51 37.04872 122.44376 33992 ft 426 kts 282°
2026-05-06 19:52 37.06807 122.37354 33995 ft 431 kts 290°
2026-05-06 19:52 37.10088 122.30987 33996 ft 442 kts 304°
2026-05-06 19:53 37.14625 122.25686 33991 ft 445 kts 308°
2026-05-06 19:53 37.18481 122.19793 33991 ft 431 kts 295°
2026-05-06 19:54 37.20918 122.13041 33992 ft 423 kts 285°
2026-05-06 19:54 37.22788 122.06054 34007 ft 422 kts 283°
2026-05-06 19:55 37.24554 121.99064 33992 ft 419 kts 283°
2026-05-06 19:55 37.26321 121.92102 33988 ft 419 kts 283°
2026-05-06 19:56 37.28103 121.85146 33993 ft 419 kts 283°
2026-05-06 19:56 37.29877 121.78235 34014 ft 419 kts 283°
2026-05-06 19:57 37.31654 121.71302 33996 ft 416 kts 283°
2026-05-06 19:57 37.33419 121.64385 33996 ft 416 kts 283°
2026-05-06 19:58 37.35179 121.57467 34002 ft 416 kts 283°
2026-05-06 19:58 37.36936 121.50544 34011 ft 415 kts 283°
2026-05-06 19:59 37.38682 121.43652 34006 ft 413 kts 283°
2026-05-06 19:59 37.40418 121.36774 34014 ft 412 kts 283°
2026-05-06 20:00 37.42148 121.29898 34019 ft 412 kts 283°
2026-05-06 20:00 37.43875 121.23018 34019 ft 412 kts 283°
2026-05-06 20:01 37.45607 121.16144 34020 ft 412 kts 284°
2026-05-06 20:01 37.47689 121.09388 34018 ft 415 kts 288°
2026-05-06 20:02 37.49932 121.02694 34027 ft 415 kts 288°
2026-05-06 20:02 37.52128 120.95982 34045 ft 414 kts 287°
2026-05-06 20:03 37.54275 120.89251 34032 ft 414 kts 287°
2026-05-06 20:03 37.56401 120.82517 34034 ft 413 kts 287°
2026-05-06 20:04 37.58521 120.75784 34036 ft 413 kts 287°
2026-05-06 20:04 37.60676 120.69114 34039 ft 414 kts 287°
2026-05-06 20:05 37.62897 120.62411 34051 ft 414 kts 287°
2026-05-06 20:05 37.65137 120.55720 34047 ft 415 kts 289°
2026-05-06 20:06 37.67892 120.49263 34058 ft 419 kts 293°
2026-05-06 20:06 37.70791 120.42875 34057 ft 419 kts 294°
2026-05-06 20:07 37.73711 120.36499 34066 ft 419 kts 293°
2026-05-06 20:07 37.76621 120.30123 34065 ft 419 kts 293°
2026-05-06 20:08 37.79517 120.23744 34063 ft 418 kts 293°
2026-05-06 20:08 37.82408 120.17357 34062 ft 418 kts 293°
2026-05-06 20:09 37.85295 120.10968 34085 ft 418 kts 293°
2026-05-06 20:09 37.88179 120.04573 34074 ft 418 kts 293°
2026-05-06 20:10 37.91059 119.98174 34073 ft 418 kts 292°
2026-05-06 20:10 37.93933 119.91776 34070 ft 418 kts 292°
2026-05-06 20:11 37.96805 119.85370 34073 ft 418 kts 292°
2026-05-06 20:11 37.99673 119.78964 34081 ft 418 kts 292°
2026-05-06 20:12 38.02533 119.72561 34077 ft 417 kts 292°
2026-05-06 20:12 38.05391 119.66148 34079 ft 417 kts 292°
2026-05-06 20:13 38.08241 119.59739 34079 ft 417 kts 292°
2026-05-06 20:13 38.11013 119.53291 34111 ft 413 kts 288°
2026-05-06 20:14 38.13298 119.46642 34087 ft 409 kts 286°
2026-05-06 20:14 38.15476 119.39971 34088 ft 409 kts 285°
2026-05-06 20:15 38.17620 119.33336 34093 ft 408 kts 285°
2026-05-06 20:15 38.19778 119.26659 34094 ft 408 kts 285°
2026-05-06 20:16 38.21938 119.19986 34094 ft 407 kts 285°
2026-05-06 20:16 38.24090 119.13326 34093 ft 407 kts 285°
2026-05-06 20:17 38.26235 119.06667 34096 ft 407 kts 285°
2026-05-06 20:17 38.28375 119.00009 34099 ft 406 kts 285°
2026-05-06 20:18 38.30512 118.93346 34103 ft 406 kts 285°
2026-05-06 20:18 38.32636 118.86712 34100 ft 404 kts 285°
2026-05-06 20:19 38.34753 118.80081 34098 ft 404 kts 285°
2026-05-06 20:19 38.36868 118.73447 34101 ft 404 kts 285°
2026-05-06 20:20 38.38988 118.66815 34099 ft 404 kts 285°
2026-05-06 20:20 38.41097 118.60205 34101 ft 401 kts 285°
2026-05-06 20:21 38.43188 118.53635 34105 ft 399 kts 285°
2026-05-06 20:21 38.45272 118.47067 34104 ft 399 kts 285°
2026-05-06 20:22 38.47351 118.40498 34107 ft 399 kts 285°
2026-05-06 20:22 38.49414 118.33972 34112 ft 398 kts 285°
2026-05-06 20:23 38.51467 118.27455 34113 ft 395 kts 285°
2026-05-06 20:23 38.53507 118.20955 34111 ft 394 kts 285°
2026-05-06 20:24 38.55544 118.14449 34117 ft 394 kts 285°
2026-05-06 20:24 38.57587 118.07945 34117 ft 395 kts 286°
2026-05-06 20:25 38.60313 118.01763 34122 ft 406 kts 297°
2026-05-06 20:25 38.64066 117.96264 34121 ft 413 kts 303°
2026-05-06 20:26 38.68052 117.90948 34121 ft 414 kts 304°
2026-05-06 20:26 38.72064 117.85652 34164 ft 414 kts 303°
2026-05-06 20:27 38.76057 117.80337 34122 ft 414 kts 303°
2026-05-06 20:27 38.80032 117.75008 34138 ft 414 kts 303°
2026-05-06 20:28 38.84000 117.69673 34131 ft 413 kts 303°
2026-05-06 20:28 38.87967 117.64330 34131 ft 413 kts 303°
2026-05-06 20:29 38.91929 117.58986 34144 ft 413 kts 303°
2026-05-06 20:29 38.95889 117.53636 34137 ft 413 kts 303°
2026-05-06 20:30 39.01825 117.45601 34156 ft 413 kts 303°
2026-05-06 20:31 39.05519 117.40030 34150 ft 403 kts 295°
2026-05-06 20:31 39.08033 117.33760 34148 ft 389 kts 283°
2026-05-06 20:32 39.09303 117.27084 34148 ft 383 kts 276°
2026-05-06 20:32 39.10212 117.20337 34148 ft 382 kts 275°
2026-05-06 20:33 39.11066 117.13632 34158 ft 382 kts 275°
2026-05-06 20:33 39.11940 117.06887 34119 ft 382 kts 275°
2026-05-06 20:34 39.12826 117.00142 34153 ft 382 kts 275°
2026-05-06 20:34 39.13793 116.93411 34158 ft 383 kts 277°
2026-05-06 20:35 39.14881 116.86696 34185 ft 383 kts 277°
2026-05-06 20:35 39.15963 116.79976 34161 ft 383 kts 277°
2026-05-06 20:36 39.17021 116.73250 34167 ft 383 kts 276°
2026-05-06 20:36 39.18064 116.66524 34167 ft 383 kts 276°
2026-05-06 20:37 39.18770 116.60911 34172 ft 380 kts 271°
2026-05-06 20:37 39.18606 116.54161 34186 ft 376 kts 260°
2026-05-06 20:38 39.17364 116.47613 34175 ft 377 kts 255°
2026-05-06 20:38 39.15866 116.41150 34175 ft 377 kts 255°
2026-05-06 20:39 39.14337 116.34694 34175 ft 377 kts 255°
2026-05-06 20:39 39.12823 116.28237 34177 ft 377 kts 255°
2026-05-06 20:40 39.11320 116.21783 34164 ft 376 kts 255°
2026-05-06 20:40 39.09813 116.15313 34181 ft 377 kts 255°
2026-05-06 20:41 39.08300 116.08841 34181 ft 378 kts 255°
2026-05-06 20:41 39.06784 116.02374 34184 ft 378 kts 255°
2026-05-06 20:42 39.05264 115.95907 34188 ft 377 kts 255°
2026-05-06 20:42 39.03742 115.89454 34186 ft 376 kts 255°
2026-05-06 20:43 39.02220 115.83019 34189 ft 376 kts 255°
2026-05-06 20:43 39.00695 115.76590 34188 ft 377 kts 255°
2026-05-06 20:44 38.99159 115.70128 34190 ft 378 kts 255°
2026-05-06 20:44 38.97628 115.63708 34232 ft 378 kts 255°
2026-05-06 20:45 38.96087 115.57264 34194 ft 377 kts 255°
2026-05-06 20:45 38.94486 115.50858 34194 ft 377 kts 252°
2026-05-06 20:46 38.92431 115.44643 34197 ft 379 kts 250°
2026-05-06 20:46 38.90275 115.38471 34128 ft 379 kts 250°
2026-05-06 20:47 38.88090 115.32283 34246 ft 383 kts 250°
2026-05-06 20:47 38.85906 115.26097 34199 ft 379 kts 250°
2026-05-06 20:48 38.83735 115.19943 34195 ft 378 kts 250°
2026-05-06 20:48 38.81563 115.13792 34200 ft 379 kts 250°
2026-05-06 20:49 38.79388 115.07642 34202 ft 379 kts 250°
2026-05-06 20:49 38.77210 115.01502 34174 ft 379 kts 250°
2026-05-06 20:50 38.75019 114.95337 34203 ft 381 kts 250°
2026-05-06 20:50 38.72824 114.89162 34203 ft 381 kts 250°
2026-05-06 20:51 38.70629 114.82996 34200 ft 381 kts 250°
2026-05-06 20:51 38.68427 114.76826 34198 ft 381 kts 250°
2026-05-06 20:52 38.66223 114.70664 34202 ft 381 kts 250°
2026-05-06 20:52 38.64014 114.64501 34185 ft 381 kts 250°
2026-05-06 20:53 38.61799 114.58327 34203 ft 382 kts 250°
2026-05-06 20:53 38.59563 114.52160 34198 ft 382 kts 250°
2026-05-06 20:54 38.57331 114.46043 34198 ft 382 kts 250°
2026-05-06 20:54 38.55101 114.39883 34200 ft 382 kts 250°
2026-05-06 20:55 38.52865 114.33720 34203 ft 383 kts 250°
2026-05-06 20:55 38.50619 114.27543 34200 ft 384 kts 250°
2026-05-06 20:56 38.48370 114.21372 34206 ft 383 kts 250°
2026-05-06 20:56 38.46115 114.15202 34206 ft 383 kts 250°
2026-05-06 20:57 38.43860 114.09043 34217 ft 383 kts 250°
2026-05-06 20:57 38.41605 114.02891 34222 ft 382 kts 250°
2026-05-06 20:58 38.39358 113.96760 34226 ft 381 kts 250°
2026-05-06 20:58 38.37108 113.90634 34209 ft 384 kts 250°
2026-05-06 20:59 38.34826 113.84437 34233 ft 387 kts 250°
2026-05-06 20:59 38.32521 113.78252 34231 ft 386 kts 249°
2026-05-06 21:00 38.30192 113.72089 34265 ft 385 kts 250°
2026-05-06 21:00 38.27882 113.65981 34257 ft 383 kts 250°
2026-05-06 21:01 38.25573 113.59881 34258 ft 383 kts 250°
2026-05-06 21:01 38.23275 113.53812 34235 ft 384 kts 250°
2026-05-06 21:02 38.20947 113.47675 34266 ft 386 kts 250°
2026-05-06 21:02 38.18611 113.41536 34271 ft 386 kts 250°
2026-05-06 21:03 38.16261 113.35374 34280 ft 388 kts 250°
2026-05-06 21:03 38.13935 113.29185 34280 ft 388 kts 250°
2026-05-06 21:04 38.11638 113.22988 34295 ft 388 kts 250°
2026-05-06 21:04 38.09328 113.16791 34288 ft 389 kts 250°
2026-05-06 21:05 38.07010 113.10598 34303 ft 389 kts 250°
2026-05-06 21:05 38.04683 113.04391 34300 ft 390 kts 250°
2026-05-06 21:06 38.02346 112.98173 34302 ft 391 kts 250°
2026-05-06 21:06 38.00005 112.91960 34303 ft 390 kts 250°
2026-05-06 21:07 37.97658 112.85750 34301 ft 391 kts 250°
2026-05-06 21:07 37.95309 112.79541 34306 ft 392 kts 249°
2026-05-06 21:08 37.92950 112.73313 34312 ft 393 kts 250°
2026-05-06 21:08 37.90578 112.67066 34311 ft 394 kts 250°
2026-05-06 21:09 37.88199 112.60827 34311 ft 393 kts 249°
2026-05-06 21:09 37.85763 112.54616 34310 ft 395 kts 248°
2026-05-06 21:10 37.83144 112.48504 34317 ft 396 kts 247°
2026-05-06 21:10 37.80514 112.42388 34315 ft 396 kts 249°
2026-05-06 21:11 37.78620 112.35937 34312 ft 389 kts 260°
2026-05-06 21:11 37.78081 112.29225 34318 ft 387 kts 272°
2026-05-06 21:12 37.78586 112.22459 34322 ft 387 kts 275°
2026-05-06 21:12 37.79270 112.15707 34319 ft 387 kts 276°
2026-05-06 21:13 37.79954 112.08953 34320 ft 388 kts 276°
2026-05-06 21:13 37.80612 112.02180 34321 ft 388 kts 275°
2026-05-06 21:14 37.81256 111.95397 34323 ft 389 kts 275°
2026-05-06 21:14 37.81891 111.88618 34323 ft 388 kts 275°
2026-05-06 21:15 37.82525 111.81835 34325 ft 389 kts 275°
2026-05-06 21:15 37.83159 111.75054 34339 ft 388 kts 275°
2026-05-06 21:16 37.83805 111.68279 34327 ft 388 kts 276°
2026-05-06 21:16 37.84555 111.61521 34325 ft 388 kts 276°
2026-05-06 21:17 37.85869 111.54885 34342 ft 393 kts 287°
2026-05-06 21:17 37.88455 111.48740 34329 ft 402 kts 299°
2026-05-06 21:18 37.92374 111.43536 34345 ft 417 kts 310°
2026-05-06 21:18 37.96939 111.38942 34349 ft 420 kts 313°
2026-05-06 21:19 38.01586 111.34444 34343 ft 420 kts 313°
2026-05-06 21:19 38.06221 111.29924 34368 ft 420 kts 312°
2026-05-06 21:20 38.10786 111.25420 34362 ft 418 kts 312°
2026-05-06 21:20 38.15367 111.20873 34372 ft 418 kts 312°
2026-05-06 21:21 38.19944 111.16326 34365 ft 417 kts 312°
2026-05-06 21:21 38.24516 111.11779 34368 ft 417 kts 312°
2026-05-06 21:22 38.29088 111.07224 34373 ft 417 kts 312°
2026-05-06 21:22 38.33659 111.02671 34382 ft 417 kts 311°
2026-05-06 21:23 38.38219 110.98113 34383 ft 417 kts 311°
2026-05-06 21:23 38.42779 110.93551 34375 ft 416 kts 311°
2026-05-06 21:24 38.47337 110.88977 34380 ft 417 kts 311°
2026-05-06 21:24 38.51888 110.84405 34384 ft 416 kts 311°
2026-05-06 21:25 38.56443 110.79830 34401 ft 416 kts 312°
2026-05-06 21:25 38.60981 110.75261 34398 ft 414 kts 312°
2026-05-06 21:26 38.64730 110.71481 34390 ft 412 kts 312°
2026-05-06 21:26 38.69990 110.66157 34394 ft 412 kts 312°
2026-05-06 21:27 38.74457 110.61631 34388 ft 412 kts 312°
2026-05-06 21:27 38.78222 110.57814 34396 ft 412 kts 312°
2026-05-06 21:28 38.82713 110.53253 34399 ft 412 kts 312°
2026-05-06 21:28 38.87179 110.48708 34400 ft 412 kts 312°
2026-05-06 21:29 38.91658 110.44144 34406 ft 410 kts 313°
2026-05-06 21:29 38.96131 110.39585 34706 ft 410 kts 313°
2026-05-06 21:29 38.98371 110.37319 34877 ft 410 kts 313°
2026-05-06 21:30 39.00615 110.35061 35052 ft 410 kts 313°
2026-05-06 21:30 39.02858 110.32806 35218 ft 409 kts 313°
2026-05-06 21:30 39.05104 110.30547 35365 ft 410 kts 313°
2026-05-06 21:30 39.07349 110.28284 35482 ft 410 kts 313°
2026-05-06 21:31 39.09593 110.26017 35633 ft 410 kts 313°
2026-05-06 21:31 39.11831 110.23745 35789 ft 409 kts 313°
2026-05-06 21:31 39.13932 110.21300 35879 ft 405 kts 307°
2026-05-06 21:32 39.17310 110.15608 36096 ft 396 kts 295°
2026-05-06 21:32 39.19369 110.09082 36253 ft 394 kts 283°
2026-05-06 21:32 39.19858 110.05607 36341 ft 395 kts 276°
2026-05-06 21:33 39.20291 109.98522 36426 ft 399 kts 275°
2026-05-06 21:33 39.20592 109.91347 36433 ft 401 kts 274°
2026-05-06 21:34 39.20894 109.84169 36432 ft 401 kts 275°
2026-05-06 21:34 39.21214 109.76995 36440 ft 401 kts 275°
2026-05-06 21:35 39.21541 109.69811 36420 ft 401 kts 275°
2026-05-06 21:35 39.21862 109.62691 36438 ft 395 kts 274°
2026-05-06 21:36 39.22173 109.55638 36435 ft 393 kts 274°
2026-05-06 21:36 39.22479 109.48643 36446 ft 394 kts 274°
2026-05-06 21:37 39.22762 109.41591 36444 ft 395 kts 274°
2026-05-06 21:37 39.23023 109.34510 36447 ft 395 kts 274°
2026-05-06 21:38 39.23284 109.27422 36446 ft 395 kts 274°
2026-05-06 21:38 39.23545 109.20338 36447 ft 396 kts 274°
2026-05-06 21:39 39.23803 109.13249 36447 ft 396 kts 274°
2026-05-06 21:39 39.24056 109.06150 36446 ft 397 kts 274°
2026-05-06 21:40 39.24308 108.99020 36441 ft 398 kts 274°
2026-05-06 21:40 39.24555 108.91883 36440 ft 398 kts 274°
2026-05-06 21:41 39.24797 108.84741 36442 ft 398 kts 274°
2026-05-06 21:41 39.25040 108.77606 36442 ft 398 kts 274°
2026-05-06 21:42 39.25275 108.70458 36435 ft 399 kts 275°
2026-05-06 21:42 39.25505 108.63301 36436 ft 400 kts 275°
2026-05-06 21:43 39.25732 108.56137 36436 ft 399 kts 275°
2026-05-06 21:43 39.25956 108.48972 36435 ft 399 kts 274°
2026-05-06 21:44 39.26173 108.41859 36433 ft 400 kts 275°
2026-05-06 21:44 39.26388 108.34695 36431 ft 400 kts 275°
2026-05-06 21:45 39.26599 108.27520 36431 ft 400 kts 275°
2026-05-06 21:45 39.26892 108.20354 36431 ft 399 kts 278°
2026-05-06 21:46 39.28192 108.13433 36433 ft 398 kts 290°
2026-05-06 21:46 39.30862 108.07159 36431 ft 403 kts 303°
2026-05-06 21:47 39.34794 108.01916 36433 ft 410 kts 313°
2026-05-06 21:47 39.39170 107.97150 36435 ft 412 kts 314°
2026-05-06 21:48 39.43598 107.92438 36435 ft 412 kts 314°
2026-05-06 21:48 39.48010 107.87699 36434 ft 412 kts 314°
2026-05-06 21:49 39.52404 107.82936 36436 ft 412 kts 314°
2026-05-06 21:49 39.56795 107.78154 36441 ft 413 kts 314°
2026-05-06 21:50 39.61196 107.73355 36441 ft 413 kts 314°
2026-05-06 21:50 39.65590 107.68557 36443 ft 413 kts 314°
2026-05-06 21:51 39.69982 107.63757 36440 ft 412 kts 314°
2026-05-06 21:51 39.74367 107.58954 36443 ft 412 kts 314°
2026-05-06 21:52 39.78752 107.54143 36441 ft 412 kts 314°
2026-05-06 21:52 39.83134 107.49326 36441 ft 412 kts 314°
2026-05-06 21:53 39.87511 107.44506 36435 ft 412 kts 314°
2026-05-06 21:53 39.91889 107.39677 36424 ft 412 kts 314°
2026-05-06 21:54 39.96263 107.34844 36441 ft 412 kts 314°
2026-05-06 21:54 40.00633 107.30008 36428 ft 412 kts 314°
2026-05-06 21:55 40.05001 107.25164 36451 ft 412 kts 315°
2026-05-06 21:55 40.09383 107.20297 36428 ft 415 kts 315°
2026-05-06 21:56 40.13780 107.15403 36414 ft 415 kts 315°
2026-05-06 21:56 40.18179 107.10501 36420 ft 415 kts 315°
2026-05-06 21:57 40.22572 107.05595 36419 ft 415 kts 315°
2026-05-06 21:57 40.26941 107.00652 36417 ft 414 kts 312°
2026-05-06 21:58 40.30576 106.94977 36443 ft 408 kts 300°
2026-05-06 21:58 40.33021 106.88270 36422 ft 411 kts 290°
2026-05-06 21:59 40.34953 106.81202 36422 ft 412 kts 289°
2026-05-06 21:59 40.36803 106.74084 36422 ft 412 kts 289°
2026-05-06 22:00 40.38661 106.66968 36422 ft 413 kts 289°
2026-05-06 22:00 40.40536 106.59846 36430 ft 413 kts 289°
2026-05-06 22:01 40.42415 106.52719 36427 ft 413 kts 289°
2026-05-06 22:01 40.44291 106.45583 36419 ft 414 kts 289°
2026-05-06 22:02 40.46162 106.38444 36419 ft 414 kts 289°
2026-05-06 22:02 40.48029 106.31296 36414 ft 414 kts 289°
2026-05-06 22:03 40.49897 106.24122 36414 ft 415 kts 289°
2026-05-06 22:03 40.51761 106.16945 36404 ft 415 kts 289°
2026-05-06 22:04 40.53623 106.09754 36406 ft 415 kts 289°
2026-05-06 22:04 40.55479 106.02561 36401 ft 416 kts 289°
2026-05-06 22:05 40.57331 105.95363 36399 ft 416 kts 289°
2026-05-06 22:05 40.59184 105.88143 36386 ft 417 kts 289°
2026-05-06 22:06 40.61033 105.80918 36389 ft 417 kts 289°
2026-05-06 22:06 40.62878 105.73684 36379 ft 417 kts 289°
2026-05-06 22:07 40.63177 105.72511 36379 ft 417 kts 289°
2026-05-06 22:08 40.64170 105.68608 36382 ft 417 kts 289°
2026-05-06 22:09 40.66007 105.61367 36365 ft 417 kts 289°
2026-05-06 22:09 40.67841 105.54117 36373 ft 417 kts 289°
2026-05-06 22:10 40.69671 105.46863 36365 ft 417 kts 289°
2026-05-06 22:10 40.71496 105.39606 36366 ft 417 kts 289°
2026-05-06 22:11 40.73317 105.32343 36365 ft 417 kts 288°
2026-05-06 22:11 40.75134 105.25073 36363 ft 418 kts 288°
2026-05-06 22:12 40.76952 105.17777 36373 ft 419 kts 289°
2026-05-06 22:12 40.78777 105.10432 36364 ft 423 kts 288°
2026-05-06 22:13 40.80606 105.03049 36356 ft 423 kts 288°
2026-05-06 22:13 40.82429 104.95664 36358 ft 423 kts 288°
2026-05-06 22:14 40.83942 104.89518 36340 ft 424 kts 288°
2026-05-06 22:14 40.86059 104.80891 36351 ft 425 kts 288°
2026-05-06 22:15 40.87878 104.73453 36347 ft 426 kts 288°
2026-05-06 22:15 40.89693 104.66007 36346 ft 426 kts 288°
2026-05-06 22:16 40.91212 104.59760 36343 ft 426 kts 288°
2026-05-06 22:16 40.93018 104.52308 36344 ft 426 kts 288°
2026-05-06 22:17 40.94820 104.44847 36330 ft 426 kts 288°
2026-05-06 22:17 40.96606 104.37430 36329 ft 425 kts 288°
2026-05-06 22:18 40.98401 104.29971 36323 ft 425 kts 289°
2026-05-06 22:18 41.00452 104.22617 36324 ft 425 kts 291°
2026-05-06 22:19 41.02641 104.15324 36321 ft 427 kts 291°
2026-05-06 22:19 41.04805 104.07983 36315 ft 427 kts 291°
2026-05-06 22:20 41.06927 104.00627 36317 ft 428 kts 291°
2026-05-06 22:20 41.09037 103.93244 36320 ft 428 kts 291°
2026-05-06 22:21 41.11125 103.85912 36313 ft 428 kts 290°
2026-05-06 22:21 41.13228 103.78514 36320 ft 428 kts 290°
2026-05-06 22:22 41.15328 103.71110 36311 ft 428 kts 290°
2026-05-06 22:22 41.17424 103.63700 36332 ft 428 kts 290°
2026-05-06 22:23 41.19521 103.56263 36316 ft 432 kts 291°
2026-05-06 22:23 41.21609 103.48836 36278 ft 433 kts 290°
2026-05-06 22:24 41.23715 103.41324 36301 ft 434 kts 290°
2026-05-06 22:24 41.25815 103.33810 36295 ft 434 kts 290°
2026-05-06 22:25 41.27909 103.26292 36293 ft 434 kts 290°
2026-05-06 22:25 41.30001 103.18764 36294 ft 434 kts 290°
2026-05-06 22:26 41.32086 103.11236 36284 ft 434 kts 290°
2026-05-06 22:26 41.34174 103.03677 36287 ft 436 kts 290°
2026-05-06 22:27 41.36253 102.96154 36283 ft 436 kts 291°
2026-05-06 22:27 41.38423 102.88621 36288 ft 436 kts 291°
2026-05-06 22:28 41.40615 102.81090 36289 ft 436 kts 291°
2026-05-06 22:28 41.42791 102.73555 36278 ft 436 kts 291°
2026-05-06 22:29 41.44963 102.65992 36281 ft 437 kts 291°
2026-05-06 22:29 41.47139 102.58426 36279 ft 437 kts 291°
2026-05-06 22:30 41.49314 102.50847 36281 ft 437 kts 291°
2026-05-06 22:30 41.51479 102.43279 36275 ft 437 kts 291°
2026-05-06 22:31 41.53642 102.35690 36281 ft 439 kts 291°
2026-05-06 22:31 41.55819 102.28032 36273 ft 442 kts 291°
2026-05-06 22:32 41.57999 102.20339 36273 ft 443 kts 291°
2026-05-06 22:32 41.60173 102.12644 36269 ft 443 kts 291°
2026-05-06 22:33 41.62327 102.04995 36269 ft 443 kts 290°
2026-05-06 22:33 41.64494 101.97279 36262 ft 444 kts 290°
2026-05-06 22:34 41.66662 101.89532 36262 ft 445 kts 290°
2026-05-06 22:34 41.68828 101.81770 36261 ft 445 kts 290°
2026-05-06 22:35 41.70984 101.74021 36257 ft 445 kts 290°
2026-05-06 22:35 41.73138 101.66257 36253 ft 445 kts 290°
2026-05-06 22:36 41.75275 101.58527 36254 ft 446 kts 290°
2026-05-06 22:36 41.77427 101.50721 36254 ft 447 kts 290°
2026-05-06 22:37 41.79572 101.42914 36256 ft 447 kts 290°
2026-05-06 22:37 41.81714 101.35095 36256 ft 447 kts 290°
2026-05-06 22:38 41.83843 101.27270 36248 ft 448 kts 288°
2026-05-06 22:38 41.85126 101.19090 36257 ft 451 kts 275°
2026-05-06 22:39 41.85478 101.10686 36258 ft 452 kts 273°
2026-05-06 22:39 41.85661 101.02270 36255 ft 452 kts 272°
2026-05-06 22:40 41.85828 100.93849 36252 ft 452 kts 272°
2026-05-06 22:40 41.86007 100.85480 36252 ft 452 kts 272°
2026-05-06 22:41 41.86283 100.72847 36258 ft 452 kts 272°
2026-05-06 22:42 41.86460 100.64423 36245 ft 452 kts 272°
2026-05-06 22:42 41.86631 100.55995 36245 ft 452 kts 272°
2026-05-06 22:43 41.86797 100.47552 36254 ft 454 kts 272°
2026-05-06 22:43 41.86955 100.39085 36243 ft 454 kts 272°
2026-05-06 22:44 41.87107 100.30620 36249 ft 454 kts 272°
2026-05-06 22:44 41.87254 100.22153 36258 ft 454 kts 272°
2026-05-06 22:45 41.87394 100.13674 36252 ft 455 kts 272°
2026-05-06 22:45 41.87529 100.05175 36257 ft 456 kts 272°
2026-05-06 22:46 41.87656 99.96727 36254 ft 456 kts 272°
2026-05-06 22:46 41.87778 99.88213 36257 ft 456 kts 272°
2026-05-06 22:47 41.87894 99.79701 36257 ft 457 kts 271°
2026-05-06 22:47 41.88004 99.71159 36258 ft 458 kts 271°
2026-05-06 22:48 41.88107 99.62602 36264 ft 459 kts 271°
2026-05-06 22:48 41.88205 99.54045 36263 ft 459 kts 271°
2026-05-06 22:49 41.88296 99.45486 36263 ft 459 kts 271°
2026-05-06 22:49 41.88381 99.36919 36268 ft 460 kts 271°
2026-05-06 22:50 41.88459 99.28332 36266 ft 460 kts 271°
2026-05-06 22:50 41.88531 99.19745 36269 ft 460 kts 271°
2026-05-06 22:51 41.88597 99.11158 36270 ft 460 kts 271°
2026-05-06 22:51 41.88657 99.02566 36275 ft 461 kts 271°
2026-05-06 22:52 41.88709 98.93962 36281 ft 461 kts 271°
2026-05-06 22:52 41.88756 98.85360 36279 ft 461 kts 271°
2026-05-06 22:53 41.88796 98.76751 36280 ft 461 kts 270°
2026-05-06 22:53 41.88830 98.68140 36280 ft 462 kts 270°
2026-05-06 22:54 41.88858 98.59551 36282 ft 464 kts 270°
2026-05-06 22:54 41.88879 98.50883 36280 ft 464 kts 270°
2026-05-06 22:55 41.88893 98.42215 36279 ft 464 kts 270°
2026-05-06 22:55 41.88902 98.33599 36286 ft 458 kts 270°
2026-05-06 22:56 41.88903 98.25082 36284 ft 456 kts 270°
2026-05-06 22:56 41.88898 98.16571 36288 ft 456 kts 270°
2026-05-06 22:57 41.88887 98.08061 36293 ft 456 kts 270°
2026-05-06 22:57 41.88869 97.99554 36301 ft 456 kts 270°
2026-05-06 22:58 41.88846 97.91029 36302 ft 458 kts 270°
2026-05-06 22:58 41.88816 97.82468 36307 ft 459 kts 270°
2026-05-06 22:59 41.88779 97.73895 36298 ft 459 kts 270°
2026-05-06 22:59 41.88737 97.65319 36304 ft 460 kts 270°
2026-05-06 23:00 41.88688 97.56746 36291 ft 460 kts 269°
2026-05-06 23:00 41.88632 97.48209 36299 ft 461 kts 269°
2026-05-06 23:01 41.88570 97.39608 36292 ft 461 kts 269°
2026-05-06 23:01 41.88501 97.31006 36290 ft 461 kts 269°
2026-05-06 23:02 41.88426 97.22401 36286 ft 461 kts 269°
2026-05-06 23:02 41.88345 97.13792 36283 ft 461 kts 269°
2026-05-06 23:03 41.88257 97.05188 36284 ft 461 kts 269°
2026-05-06 23:03 41.88163 96.96586 36280 ft 461 kts 269°
2026-05-06 23:04 41.88062 96.87984 36279 ft 461 kts 269°
2026-05-06 23:04 41.87955 96.79373 36283 ft 463 kts 269°
2026-05-06 23:05 41.87841 96.70716 36280 ft 465 kts 269°
2026-05-06 23:05 41.87720 96.62047 36281 ft 465 kts 269°
2026-05-06 23:06 41.87614 96.54844 36277 ft 465 kts 269°
2026-05-06 23:06 41.87481 96.46176 36280 ft 465 kts 269°
2026-05-06 23:07 41.87342 96.37496 36279 ft 466 kts 269°
2026-05-06 23:07 41.87195 96.28794 36286 ft 466 kts 269°
2026-05-06 23:08 41.87057 96.20099 36281 ft 466 kts 269°
2026-05-06 23:08 41.87014 96.11392 36281 ft 466 kts 270°
2026-05-06 23:09 41.86986 96.02682 36284 ft 468 kts 269°
2026-05-06 23:09 41.86939 95.93997 36281 ft 469 kts 269°
2026-05-06 23:10 41.86875 95.85244 36279 ft 469 kts 269°
2026-05-06 23:10 41.86801 95.76498 36283 ft 469 kts 269°
2026-05-06 23:11 41.86721 95.67743 36280 ft 470 kts 269°
2026-05-06 23:11 41.86635 95.58967 36274 ft 471 kts 269°
2026-05-06 23:12 41.86542 95.50181 36271 ft 471 kts 269°
2026-05-06 23:12 41.86442 95.41391 36267 ft 471 kts 269°
2026-05-06 23:13 41.86336 95.32606 36253 ft 471 kts 269°
2026-05-06 23:13 41.86928 95.23906 36261 ft 469 kts 283°
2026-05-06 23:14 41.89360 95.15780 36253 ft 475 kts 301°
2026-05-06 23:14 41.93404 95.08742 36254 ft 478 kts 309°
2026-05-06 23:15 41.97806 95.02051 36251 ft 478 kts 310°
2026-05-06 23:15 42.02210 94.95428 36251 ft 478 kts 310°
2026-05-06 23:16 42.06619 94.88715 36253 ft 479 kts 310°
2026-05-06 23:16 42.11014 94.81962 36244 ft 480 kts 310°
2026-05-06 23:17 42.15413 94.75179 36243 ft 481 kts 310°
2026-05-06 23:17 42.19810 94.68382 36235 ft 481 kts 310°
2026-05-06 23:18 42.24208 94.61572 36232 ft 481 kts 310°
2026-05-06 23:18 42.28601 94.54753 36226 ft 482 kts 310°
2026-05-06 23:19 42.32997 94.47914 36227 ft 482 kts 311°
2026-05-06 23:19 42.37384 94.41074 36220 ft 481 kts 310°
2026-05-06 23:20 42.41762 94.34232 36219 ft 481 kts 310°
2026-05-06 23:20 42.46136 94.27379 36222 ft 481 kts 310°
2026-05-06 23:21 42.50502 94.20524 36217 ft 481 kts 310°
2026-05-06 23:21 42.54871 94.13647 36226 ft 481 kts 310°
2026-05-06 23:22 42.59207 94.06808 36218 ft 481 kts 310°
2026-05-06 23:22 42.63596 93.99868 36227 ft 481 kts 310°
2026-05-06 23:23 42.67919 93.93016 36216 ft 481 kts 310°
2026-05-06 23:23 42.72266 93.86110 36227 ft 481 kts 310°
2026-05-06 23:24 42.76614 93.79187 36210 ft 481 kts 310°
2026-05-06 23:24 42.80949 93.72267 36224 ft 480 kts 310°
2026-05-06 23:25 42.84636 93.64726 36228 ft 480 kts 295°
2026-05-06 23:25 42.87062 93.56254 36227 ft 480 kts 290°
2026-05-06 23:26 42.89214 93.47629 36229 ft 481 kts 289°
2026-05-06 23:26 42.91325 93.38973 36229 ft 481 kts 289°
2026-05-06 23:27 42.93449 93.30329 36224 ft 481 kts 289°
2026-05-06 23:27 42.95582 93.21683 36224 ft 481 kts 289°
2026-05-06 23:28 42.97714 93.13030 36219 ft 481 kts 289°
2026-05-06 23:28 42.99836 93.04380 36231 ft 480 kts 289°
2026-05-06 23:29 43.01950 92.95731 36230 ft 480 kts 289°
2026-05-06 23:29 43.04058 92.87071 36224 ft 480 kts 289°
2026-05-06 23:30 43.06160 92.78400 36225 ft 480 kts 289°
2026-05-06 23:30 43.08255 92.69726 36221 ft 480 kts 289°
2026-05-06 23:31 43.10331 92.61100 36221 ft 480 kts 289°
2026-05-06 23:31 43.12408 92.52434 36212 ft 479 kts 288°
2026-05-06 23:32 43.14479 92.43762 36208 ft 480 kts 289°
2026-05-06 23:32 43.16557 92.35026 36223 ft 479 kts 289°
2026-05-06 23:33 43.18601 92.26401 36215 ft 480 kts 289°
2026-05-06 23:33 43.20656 92.17692 36216 ft 480 kts 288°
2026-05-06 23:34 43.22706 92.08973 36215 ft 481 kts 288°
2026-05-06 23:34 43.24749 92.00251 36213 ft 480 kts 288°
2026-05-06 23:35 43.26785 91.91523 36224 ft 481 kts 288°
2026-05-06 23:35 43.28817 91.82780 36218 ft 480 kts 288°
2026-05-06 23:36 43.30842 91.74033 36216 ft 481 kts 288°
2026-05-06 23:36 43.32860 91.65277 36215 ft 481 kts 288°
2026-05-06 23:37 43.34872 91.56517 36227 ft 481 kts 288°
2026-05-06 23:37 43.36878 91.47746 36225 ft 481 kts 288°
2026-05-06 23:38 43.38878 91.38968 36228 ft 481 kts 288°
2026-05-06 23:38 43.40871 91.30184 36226 ft 481 kts 288°
2026-05-06 23:39 43.42854 91.21394 36241 ft 481 kts 288°
2026-05-06 23:39 43.43840 91.17000 36237 ft 481 kts 288°